TimeEST,TemperatureF,Dew PointF,Humidity,Sea Level PressureIn,VisibilityMPH,Wind Direction,Wind SpeedMPH,Gust SpeedMPH,PrecipitationIn,Events,Conditions,WindDirDegrees,DateUTC
12:53 AM,70.0,68.0,93,29.93,3.0,SW,6.9,-,N/A,,Clear,220,2013-02-24 05:53:00
1:53 AM,69.1,68.0,96,29.92,3.0,SW,5.8,-,N/A,,Clear,230,2013-02-24 06:53:00
2:53 AM,69.1,66.9,93,29.90,3.0,SW,6.9,-,N/A,,Mostly Cloudy,220,2013-02-24 07:53:00
3:22 AM,68.0,66.2,94,29.90,3.0,SW,4.6,-,N/A,,Mostly Cloudy,220,2013-02-24 08:22:00
3:31 AM,68.0,66.2,94,29.90,3.0,SW,5.8,-,N/A,,Mostly Cloudy,230,2013-02-24 08:31:00
3:53 AM,68.0,66.0,93,29.90,4.0,WSW,6.9,-,N/A,,Overcast,250,2013-02-24 08:53:00
4:53 AM,69.1,66.9,93,29.91,4.0,SW,9.2,-,N/A,,Overcast,220,2013-02-24 09:53:00
5:38 AM,69.8,66.2,88,29.91,5.0,SSW,9.2,-,N/A,,Overcast,210,2013-02-24 10:38:00
5:53 AM,70.0,68.0,93,29.92,5.0,SSW,9.2,-,N/A,,Overcast,210,2013-02-24 10:53:00
6:32 AM,69.8,68.0,94,29.93,5.0,SSW,10.4,-,N/A,,Overcast,210,2013-02-24 11:32:00
7:50 AM,71.6,69.8,94,29.95,8.0,West,4.6,-,N/A,,Overcast,260,2013-02-24 12:50:00
7:53 AM,72.0,69.1,91,29.95,8.0,West,5.8,-,N/A,,Overcast,260,2013-02-24 12:53:00
8:21 AM,73.4,69.8,88,29.96,8.0,West,5.8,-,N/A,,Overcast,260,2013-02-24 13:21:00
8:33 AM,73.4,69.8,88,29.96,7.0,WSW,4.6,-,0.00,Rain,Light Rain,250,2013-02-24 13:33:00
8:41 AM,71.6,69.8,94,29.97,6.0,West,3.5,-,0.00,Rain,Light Rain,270,2013-02-24 13:41:00
8:53 AM,72.0,69.1,91,29.97,3.0,Calm,Calm,-,0.01,Rain,Light Rain,0,2013-02-24 13:53:00
8:56 AM,71.6,69.8,94,29.97,1.5,WSW,4.6,-,0.04,Rain,Heavy Rain,250,2013-02-24 13:56:00
9:00 AM,71.6,69.8,94,29.97,0.8,West,3.5,-,0.07,Rain,Heavy Rain,260,2013-02-24 14:00:00
9:08 AM,71.6,69.8,94,29.97,2.0,WNW,4.6,-,0.08,Rain,Light Rain,300,2013-02-24 14:08:00
9:21 AM,71.6,69.8,94,29.97,4.0,West,4.6,-,0.08,Rain,Light Rain,270,2013-02-24 14:21:00
9:53 AM,72.0,70.0,93,29.98,5.0,WNW,3.5,-,0.08,,Mostly Cloudy,290,2013-02-24 14:53:00
10:28 AM,71.6,69.8,94,29.98,7.0,WNW,4.6,-,N/A,,Scattered Clouds,290,2013-02-24 15:28:00
10:53 AM,72.0,69.1,91,29.98,8.0,WNW,4.6,-,N/A,,Partly Cloudy,300,2013-02-24 15:53:00
11:21 AM,73.4,69.8,88,29.99,10.0,West,5.8,-,N/A,,Mostly Cloudy,280,2013-02-24 16:21:00
11:53 AM,73.0,68.0,84,29.98,10.0,WNW,4.6,-,N/A,,Partly Cloudy,290,2013-02-24 16:53:00
12:53 PM,75.0,68.0,79,29.97,10.0,SW,3.5,-,0.01,,Partly Cloudy,230,2013-02-24 17:53:00
1:53 PM,73.9,66.9,79,29.95,10.0,SSE,4.6,-,N/A,,Mostly Cloudy,160,2013-02-24 18:53:00
2:43 PM,75.2,68.0,78,29.95,10.0,SW,6.9,-,N/A,,Overcast,230,2013-02-24 19:43:00
2:53 PM,77.0,68.0,74,29.94,10.0,WSW,4.6,-,N/A,,Mostly Cloudy,240,2013-02-24 19:53:00
3:43 PM,75.2,68.0,78,29.94,10.0,South,4.6,-,N/A,,Mostly Cloudy,170,2013-02-24 20:43:00
3:53 PM,75.9,68.0,76,29.94,10.0,South,4.6,-,N/A,,Overcast,170,2013-02-24 20:53:00
4:05 PM,77.0,66.2,69,29.94,10.0,Variable,4.6,-,N/A,,Mostly Cloudy,0,2013-02-24 21:05:00
4:53 PM,75.9,68.0,76,29.93,10.0,Calm,Calm,-,N/A,,Mostly Cloudy,0,2013-02-24 21:53:00
5:13 PM,75.2,68.0,78,29.94,10.0,Calm,Calm,-,N/A,,Mostly Cloudy,0,2013-02-24 22:13:00
5:53 PM,73.0,66.9,81,29.94,10.0,East,8.1,-,N/A,,Mostly Cloudy,100,2013-02-24 22:53:00
6:06 PM,73.4,66.2,78,29.93,10.0,East,6.9,-,N/A,,Overcast,100,2013-02-24 23:06:00
6:53 PM,72.0,66.0,81,29.95,10.0,East,6.9,-,N/A,,Overcast,90,2013-02-24 23:53:00
7:53 PM,70.0,64.9,84,29.98,10.0,SE,4.6,-,N/A,,Mostly Cloudy,130,2013-02-25 00:53:00
8:53 PM,69.1,63.0,81,29.98,10.0,ESE,5.8,-,N/A,,Overcast,110,2013-02-25 01:53:00
9:19 PM,68.0,62.6,83,29.98,10.0,ESE,4.6,-,N/A,,Scattered Clouds,110,2013-02-25 02:19:00
9:53 PM,68.0,62.1,81,29.97,10.0,East,5.8,-,N/A,,Clear,90,2013-02-25 02:53:00
10:25 PM,68.0,62.6,83,29.97,10.0,East,5.8,-,N/A,,Mostly Cloudy,100,2013-02-25 03:25:00
10:53 PM,66.9,62.1,84,29.96,10.0,East,4.6,-,N/A,,Overcast,100,2013-02-25 03:53:00
11:53 PM,66.9,62.1,84,29.96,10.0,East,4.6,-,N/A,,Overcast,90,2013-02-25 04:53:00